Regional Weather Roundup
Issued by NWS Sioux Falls, SD

Home | Current Version | Previous Version | Graphics & Text | Print | Product List | Glossary Off
Versions: 1 2 3 4 5 6 7 8 9 10 11 12 13 14 15 16 17 18 19 20 21 22 23 24 25 26 27 28 29 30 31 32 33 34 35 36 37 38 39 40 41 42 43 44 45 46 47 48 49 50

201
ASUS43 KFSD 030702
RWRFSD

WEATHER ROUNDUP FOR SE SOUTH DAKOTA/SW MINNESOTA/NW IOWA
NATIONAL WEATHER SERVICE SIOUX FALLS SD
200 AM CDT TUE MAY 03 2016

NOTE: "FAIR" INDICATES FEW OR NO CLOUDS BELOW 12,000 FEET WITH NO
SIGNIFICANT WEATHER AND OR OBSTRUCTIONS TO VISIBILITY.


SDZ038>040-050-052>070-030800-
SOUTHEAST SOUTH DAKOTA

CITY           SKY/WX    TMP DP  RH WIND       PRES   REMARKS
BROOKINGS      CLEAR     45  40  82 CALM      30.01F
CHAMBERLAIN    NOT AVBL
HURON          CLEAR     42  41  96 CALM      30.02S
MADISON        FAIR      41  41 100 CALM      30.03S
MITCHELL       CLEAR     46  44  93 S6        30.03F
SIOUX FALLS    CLEAR     41  38  89 CALM      30.03F
WINNER         FAIR      43  39  86 SW6       30.04F
YANKTON        PTCLDY    46  39  76 CALM      30.02F
$$

MNZ071-072-080-081-089-090-097-098-030800-
SOUTHWEST MINNESOTA

CITY           SKY/WX    TMP DP  RH WIND       PRES   REMARKS
FAIRMONT       PTCLDY    45  36  70 SW6       30.01S
JACKSON        CLEAR     45  36  70 W5        30.02F
LUVERNE        CLEAR     41  36  81 CALM      30.03S
MARSHALL       CLEAR     49  38  65 W10       30.00F
MONTEVIDEO     CLEAR     48  36  61 W6        30.01S
PIPESTONE      CLEAR     45  39  81 CALM      30.02S
REDWOOD FALLS  CLEAR     51  37  58 W9        29.99F
TRACY          CLEAR     49  40  72 SW9       30.01S
WINDOM         PTCLDY    46  39  76 CALM      30.01F
WORTHINGTON    CLEAR     48  39  71 SW7       30.02F
$$

IAZ001>003-012>014-020>022-031-032-NEZ013-014-SDZ071-030800-
NORTHWEST IOWA

CITY           SKY/WX    TMP DP  RH WIND       PRES   REMARKS
DENISON        CLEAR     41  39  93 CALM      30.04R
ESTHERVILLE    PTCLDY    45  38  76 SW6       30.01F
SIOUX CITY     PTCLDY    43  40  89 CALM      30.04F
SPENCER        CLEAR     42  40  92 CALM      30.03S
STORM LAKE     CLEAR     50  36  57 W7        30.04F
$$

ABBREVIATIONS USED IN REMARKS
   TC - TEMPERATURE IN CELSIUS
  WCI - WIND CHILL INDEX
   HX - HEAT INDEX
  VSB - VISIBILITY





USA.gov is the U.S. government's official web portal to all federal, state and local government web resources and services.